Location: Unspecified
(0.0000°N, 0.0000°E)
Time: 07:46:47
(UTC+00:00)

A-11 Canister half - Visible Passes

Search period start: 24 May 2017 00:00
Search period end: 03 June 2017 00:00
Orbit: 1525 x 1684 km, 47.3° (Epoch: 23 May)

Date Brightness Start Highest point End Pass type
(mag) Time Alt. Az. Time Alt. Az. Time Alt. Az.
24 May 11.0 01:12:05 10° N 01:19:57 17° ENE 01:24:20 10° E visible
24 May 9.0 03:18:56 39° NW 03:23:31 87° NE 03:33:43 10° SE visible
24 May 10.2 05:22:03 10° W 05:28:48 20° SW 05:35:35 10° S visible
25 May 11.3 01:04:24 - E 01:04:24 - E 00:50:41 10° N visible
25 May 9.1 03:02:58 74° ESE 03:02:58 74° ESE 03:12:06 10° SE visible
25 May 10.1 05:01:32 14° W 05:07:08 21° SW 05:14:18 10° S visible
26 May 10.0 02:45:11 36° SE 02:45:11 36° SE 02:50:27 10° SE visible
26 May 9.9 04:43:40 22° WSW 04:45:28 23° SW 04:52:59 10° S visible
27 May 10.8 02:26:42 18° SE 02:26:42 18° SE 02:28:47 10° SE visible
27 May 10.0 04:25:09 24° SW 04:25:09 24° SW 04:31:38 10° S visible
28 May 10.3 04:06:11 21° SSW 04:06:11 21° SSW 04:10:17 10° S visible
29 May 10.6 03:46:55 16° S 03:46:55 16° S 03:48:53 10° S visible
30 May 11.0 03:27:26 10° S 03:27:26 10° S 03:27:29 10° S visible
